Location: Eastchurch
(51.4000°N, 0.8667°E)
Time: 06:38:26
(UTC+00:00)

Cosmos 1697 Rocket - Pass Details

Date: 19 January 2026
Orbit: 830 x 844 km, 71.0° (Epoch: 18 February)

Event Time Altitude Azimuth Distance (km) Brightness Sun altitude
Rises 16:53:54 0° 331° (NNW) 3,408 5.9 -4.9°
Reaches altitude 10° 16:56:43 10° 343° (NNW) 2,472 5.1 -5.3°
Maximum altitude 17:01:34 28° 41° (NE) 1,538 3.6 -6.0°
Drops below altitude 10° 17:06:24 10° 100° (E) 2,466 4.6 -6.7°
Sets 17:09:11 0° 112° (ESE) 3,398 5.4 -7.1°
